RYR68M LFCK-LEPA

Flight info

Callsign RYR68M
Flight time 0h 45m
Altitude 33000
Route MASAM DCT GEANT N727 GIR P84 LORES
Aircraft A20N/M-SDE2E3FGHIRWXY/LB1

Departure

Time 2026-04-23 17:06
Airport Castres Mazamet Airport (LFCK)

Arrival

Time 2026-04-23 17:52
Airport Palma de Mallorca Airport (LEPA)
Time Latitude Longitude Altitude Speed Heading
2026-04-23 16:53 43.55431 2.28879 766 ft 0 kts 69°
2026-04-23 17:02 43.55431 2.28877 765 ft 0 kts 70°
2026-04-23 17:02 43.55434 2.28891 766 ft 3 kts 72°
2026-04-23 17:03 43.55446 2.28951 769 ft 12 kts 72°
2026-04-23 17:03 43.55487 2.29032 769 ft 9 kts 28°
2026-04-23 17:03 43.55558 2.28990 766 ft 15 kts 320°
2026-04-23 17:03 43.55666 2.28869 757 ft 23 kts 321°
2026-04-23 17:04 43.55809 2.28711 747 ft 29 kts 320°
2026-04-23 17:04 43.55976 2.28523 737 ft 33 kts 323°
2026-04-23 17:04 43.56163 2.28320 727 ft 34 kts 320°
2026-04-23 17:04 43.56234 2.28202 723 ft 6 kts 321°
2026-04-23 17:05 43.56250 2.28218 723 ft 0 kts 135°
2026-04-23 17:05 43.56250 2.28219 723 ft 0 kts 128°
2026-04-23 17:05 43.56246 2.28227 723 ft 0 kts 131°
2026-04-23 17:05 43.56239 2.28236 723 ft 0 kts 140°
2026-04-23 17:06 43.56226 2.28251 724 ft 19 kts 140°
2026-04-23 17:06 43.55908 2.28603 741 ft 94 kts 141°
2026-04-23 17:06 43.55253 2.29317 910 ft 137 kts 141°
2026-04-23 17:06 43.54511 2.30073 1681 ft 133 kts 141°
2026-04-23 17:07 43.53807 2.30834 2464 ft 133 kts 141°
2026-04-23 17:07 43.52943 2.31295 2920 ft 150 kts 175°
2026-04-23 17:07 43.51899 2.30768 3338 ft 181 kts 213°
2026-04-23 17:07 43.51123 2.29187 3502 ft 223 kts 240°
2026-04-23 17:08 43.50284 2.27197 3428 ft 255 kts 221°
2026-04-23 17:08 43.48806 2.25834 3480 ft 257 kts 198°
2026-04-23 17:08 43.47077 2.25059 3932 ft 265 kts 187°
2026-04-23 17:08 43.45279 2.24827 4994 ft 261 kts 178°
2026-04-23 17:09 43.43475 2.24851 5953 ft 263 kts 178°
2026-04-23 17:09 43.41633 2.24866 6785 ft 269 kts 179°
2026-04-23 17:09 43.39757 2.24860 7589 ft 275 kts 178°
2026-04-23 17:09 43.37838 2.25108 8358 ft 283 kts 172°
2026-04-23 17:10 43.35871 2.25518 9083 ft 291 kts 171°
2026-04-23 17:10 43.33855 2.25956 9883 ft 297 kts 171°
2026-04-23 17:10 43.31806 2.26392 10598 ft 304 kts 172°
2026-04-23 17:10 43.29676 2.26832 11026 ft 321 kts 172°
2026-04-23 17:11 43.27417 2.27287 11488 ft 336 kts 172°
2026-04-23 17:11 43.25098 2.27747 12179 ft 341 kts 172°
2026-04-23 17:11 43.22749 2.28209 12949 ft 345 kts 172°
2026-04-23 17:11 43.20367 2.28675 13674 ft 349 kts 173°
2026-04-23 17:12 43.17938 2.29149 14380 ft 354 kts 173°
2026-04-23 17:12 43.15485 2.29625 15074 ft 358 kts 173°
2026-04-23 17:12 43.13031 2.30101 15770 ft 363 kts 173°
2026-04-23 17:12 43.10524 2.30586 16439 ft 367 kts 173°
2026-04-23 17:13 43.07956 2.31083 17103 ft 371 kts 173°
2026-04-23 17:13 43.05403 2.31576 17735 ft 376 kts 173°
2026-04-23 17:13 43.02796 2.32080 18351 ft 380 kts 173°
2026-04-23 17:13 43.00184 2.32585 18963 ft 384 kts 173°
2026-04-23 17:14 42.97511 2.33095 19583 ft 388 kts 174°
2026-04-23 17:14 42.94861 2.33601 20216 ft 390 kts 174°
2026-04-23 17:14 42.92156 2.34116 20795 ft 394 kts 174°
2026-04-23 17:14 42.89433 2.34636 21278 ft 401 kts 174°
2026-04-23 17:15 42.86583 2.35177 21505 ft 415 kts 174°
2026-04-23 17:15 42.83648 2.35736 21727 ft 427 kts 174°
2026-04-23 17:15 42.80674 2.36304 21940 ft 439 kts 174°
2026-04-23 17:15 42.77570 2.36898 22143 ft 451 kts 174°
2026-04-23 17:16 42.74414 2.37502 22337 ft 462 kts 174°
2026-04-23 17:16 42.71203 2.38115 22519 ft 473 kts 174°
2026-04-23 17:16 42.67883 2.38748 22693 ft 483 kts 174°
2026-04-23 17:16 42.64560 2.39383 22849 ft 492 kts 174°
2026-04-23 17:17 42.61141 2.40034 23042 ft 499 kts 174°
2026-04-23 17:17 42.57680 2.40694 23386 ft 502 kts 174°
2026-04-23 17:17 42.55395 2.41130 23611 ft 504 kts 174°
2026-04-23 17:17 42.50752 2.42015 24206 ft 504 kts 174°
2026-04-23 17:18 42.43829 2.43331 25212 ft 502 kts 174°
2026-04-23 17:18 42.40398 2.43983 25692 ft 501 kts 174°
2026-04-23 17:18 42.36929 2.44641 26172 ft 500 kts 174°
2026-04-23 17:19 42.33482 2.45294 26642 ft 499 kts 174°
2026-04-23 17:19 42.30058 2.45940 26859 ft 504 kts 174°
2026-04-23 17:19 42.26577 2.46595 26963 ft 510 kts 174°
2026-04-23 17:19 42.23058 2.47256 27070 ft 516 kts 174°
2026-04-23 17:20 42.19481 2.47928 27171 ft 520 kts 174°
2026-04-23 17:20 42.12287 2.49281 27566 ft 523 kts 174°
2026-04-23 17:21 42.05030 2.50644 28077 ft 523 kts 174°
2026-04-23 17:21 42.01399 2.51325 28326 ft 523 kts 174°
2026-04-23 17:21 41.94202 2.52670 28800 ft 522 kts 174°
2026-04-23 17:22 41.90625 2.53338 29032 ft 522 kts 174°
2026-04-23 17:22 41.83403 2.54680 29494 ft 521 kts 174°
2026-04-23 17:23 41.76283 2.56001 29945 ft 519 kts 174°
2026-04-23 17:23 41.72709 2.56664 30165 ft 518 kts 174°
2026-04-23 17:23 41.65560 2.57988 30546 ft 517 kts 174°
2026-04-23 17:24 41.62036 2.58639 30732 ft 517 kts 174°
2026-04-23 17:24 41.58461 2.59300 30925 ft 516 kts 174°
2026-04-23 17:24 41.51384 2.60606 31303 ft 515 kts 174°
2026-04-23 17:25 41.44294 2.61912 31662 ft 514 kts 174°
2026-04-23 17:25 41.40753 2.62563 31839 ft 514 kts 174°
2026-04-23 17:26 41.33670 2.63864 32200 ft 513 kts 174°
2026-04-23 17:26 41.26640 2.65153 32589 ft 511 kts 175°
2026-04-23 17:27 41.19600 2.66470 32935 ft 510 kts 175°
2026-04-23 17:27 41.16121 2.67116 33094 ft 509 kts 175°
2026-04-23 17:27 41.09098 2.68403 33139 ft 508 kts 175°
2026-04-23 17:28 41.02140 2.69666 33145 ft 508 kts 175°
2026-04-23 17:28 40.95182 2.70927 33140 ft 499 kts 175°
2026-04-23 17:29 40.91730 2.71463 33035 ft 496 kts 178°
2026-04-23 17:29 40.88281 2.71740 32302 ft 496 kts 182°
2026-04-23 17:29 40.81446 2.71573 30719 ft 493 kts 185°
2026-04-23 17:30 40.79190 2.71468 30163 ft 493 kts 185°
2026-04-23 17:30 40.71214 2.71115 28150 ft 494 kts 185°
2026-04-23 17:30 40.67806 2.70974 27253 ft 494 kts 185°
2026-04-23 17:31 40.64345 2.70832 26316 ft 495 kts 185°
2026-04-23 17:31 40.60915 2.70692 25373 ft 496 kts 185°
2026-04-23 17:31 40.57502 2.70553 24405 ft 497 kts 185°
2026-04-23 17:31 40.54022 2.70452 23401 ft 498 kts 181°
2026-04-23 17:32 40.50595 2.70965 22553 ft 497 kts 170°
2026-04-23 17:32 40.47346 2.72253 22011 ft 493 kts 160°
2026-04-23 17:32 40.44253 2.74226 21423 ft 489 kts 152°
2026-04-23 17:32 40.41321 2.76372 21157 ft 487 kts 151°
2026-04-23 17:33 40.38386 2.78563 20905 ft 486 kts 151°
2026-04-23 17:33 40.35463 2.80731 20653 ft 484 kts 151°
2026-04-23 17:33 40.32520 2.82888 20402 ft 483 kts 152°
2026-04-23 17:33 40.29602 2.85007 20153 ft 481 kts 152°
2026-04-23 17:34 40.26684 2.87114 19909 ft 479 kts 152°
2026-04-23 17:34 40.23818 2.89178 19650 ft 464 kts 152°
2026-04-23 17:34 40.18310 2.93147 19071 ft 438 kts 152°
2026-04-23 17:35 40.15681 2.95042 18726 ft 428 kts 152°
2026-04-23 17:35 40.11415 2.98115 18140 ft 413 kts 152°
2026-04-23 17:35 40.08142 3.00471 17681 ft 402 kts 152°
2026-04-23 17:36 40.05662 3.02141 17311 ft 390 kts 160°
2026-04-23 17:36 40.03111 3.02716 16958 ft 366 kts 186°
2026-04-23 17:36 40.00728 3.01960 16622 ft 347 kts 206°
2026-04-23 17:36 39.98545 3.00677 16263 ft 337 kts 209°
2026-04-23 17:37 39.96448 2.99448 15836 ft 332 kts 207°
2026-04-23 17:37 39.94311 2.98317 15466 ft 328 kts 205°
2026-04-23 17:37 39.90076 2.96328 14770 ft 322 kts 203°
2026-04-23 17:38 39.87958 2.95387 14377 ft 320 kts 202°
2026-04-23 17:38 39.85852 2.94463 14002 ft 318 kts 202°
2026-04-23 17:38 39.83849 2.93362 13603 ft 310 kts 217°
2026-04-23 17:38 39.82277 2.91507 13258 ft 298 kts 237°
2026-04-23 17:39 39.81107 2.89317 12891 ft 294 kts 240°
2026-04-23 17:39 39.79990 2.87106 12482 ft 294 kts 240°
2026-04-23 17:39 39.78874 2.84919 12171 ft 289 kts 240°
2026-04-23 17:39 39.77768 2.82782 11876 ft 284 kts 240°
2026-04-23 17:40 39.76654 2.80653 11586 ft 279 kts 239°
2026-04-23 17:40 39.75572 2.78595 11283 ft 275 kts 240°
2026-04-23 17:40 39.74499 2.76559 10956 ft 271 kts 239°
2026-04-23 17:40 39.73453 2.74576 10682 ft 267 kts 239°
2026-04-23 17:41 39.72409 2.72597 10387 ft 263 kts 239°
2026-04-23 17:41 39.70364 2.68720 9709 ft 261 kts 239°
2026-04-23 17:41 39.69341 2.66778 9362 ft 260 kts 239°
2026-04-23 17:42 39.67306 2.62915 8643 ft 259 kts 239°
2026-04-23 17:42 39.66294 2.61000 8291 ft 259 kts 238°
2026-04-23 17:42 39.65276 2.59070 7879 ft 262 kts 238°
2026-04-23 17:43 39.64248 2.57126 7523 ft 261 kts 238°
2026-04-23 17:43 39.63219 2.55178 7204 ft 260 kts 238°
2026-04-23 17:43 39.62199 2.53254 6909 ft 257 kts 237°
2026-04-23 17:43 39.61198 2.51364 6627 ft 255 kts 237°
2026-04-23 17:44 39.60194 2.49470 6351 ft 253 kts 237°
2026-04-23 17:44 39.59205 2.47606 6085 ft 251 kts 237°
2026-04-23 17:44 39.57245 2.43913 5617 ft 249 kts 236°
2026-04-23 17:45 39.56215 2.42115 5218 ft 252 kts 224°
2026-04-23 17:45 39.52968 2.41354 4384 ft 249 kts 152°
2026-04-23 17:45 39.51557 2.42595 4020 ft 246 kts 140°
2026-04-23 17:46 39.48889 2.45218 3412 ft 237 kts 141°
2026-04-23 17:46 39.47572 2.46470 3169 ft 235 kts 141°
2026-04-23 17:46 39.46278 2.47721 2987 ft 229 kts 135°
2026-04-23 17:47 39.45380 2.49307 2960 ft 208 kts 109°
2026-04-23 17:47 39.45267 2.51054 2936 ft 191 kts 73°
2026-04-23 17:47 39.46502 2.53849 2946 ft 172 kts 58°
2026-04-23 17:48 39.47163 2.55109 2728 ft 165 kts 59°
2026-04-23 17:48 39.47774 2.56333 2523 ft 158 kts 61°
2026-04-23 17:48 39.48345 2.57521 2326 ft 151 kts 62°
2026-04-23 17:48 39.48879 2.58654 2136 ft 144 kts 62°
2026-04-23 17:49 39.49383 2.59730 1986 ft 137 kts 62°
2026-04-23 17:49 39.49870 2.60772 1808 ft 134 kts 63°
2026-04-23 17:49 39.50353 2.61805 1629 ft 134 kts 63°
2026-04-23 17:49 39.50838 2.62838 1452 ft 133 kts 63°
2026-04-23 17:50 39.51316 2.63858 1276 ft 133 kts 62°
2026-04-23 17:50 39.52275 2.65898 926 ft 132 kts 62°
2026-04-23 17:50 39.52754 2.66913 755 ft 132 kts 62°
2026-04-23 17:51 39.53231 2.67929 591 ft 132 kts 60°
2026-04-23 17:51 39.53703 2.68933 417 ft 131 kts 60°
2026-04-23 17:51 39.54649 2.70927 69 ft 128 kts 60°
2026-04-23 17:52 39.55075 2.71834 25 ft 94 kts 59°
2026-04-23 17:52 39.55482 2.72775 18 ft 36 kts 79°
2026-04-23 17:52 39.55496 2.72982 20 ft 14 kts 89°
2026-04-23 17:53 39.55498 2.73093 21 ft 4 kts 92°
2026-04-23 17:53 39.55497 2.73142 22 ft 6 kts 88°
2026-04-23 17:53 39.55515 2.73214 23 ft 10 kts 59°
2026-04-23 17:54 39.55562 2.73308 24 ft 14 kts 58°
2026-04-23 17:54 39.55621 2.73435 25 ft 16 kts 67°
2026-04-23 17:54 39.55495 2.73600 31 ft 13 kts 149°
2026-04-23 17:55 39.55329 2.73731 44 ft 14 kts 147°
2026-04-23 17:55 39.55238 2.73802 49 ft 14 kts 149°
2026-04-23 17:55 39.55169 2.73800 51 ft 9 kts 210°
2026-04-23 17:56 39.55110 2.73775 51 ft 8 kts 202°
2026-04-23 17:56 39.55055 2.73691 48 ft 0 kts 237°